Regional Weather Roundup
Issued by NWS

Home | Current Version | Previous Version | Graphics & Text | Print | Product List | Glossary On
Versions: 1 2 3 4 5 6 7 8 9 10 11 12 13 14 15 16 17 18 19 20 21 22 23 24 25 26 27 28 29 30 31 32 33 34 35 36 37 38 39 40 41 42 43 44 45 46 47 48 49 50
000
ASUS43 KMPX 290301
RWRMN
WEATHER ROUNDUP FOR MINNESOTA
NATIONAL WEATHER SERVICE TWIN CITIES/CHANHASSEN MN
1000 PM CDT FRI AUG 28 2015


NOTE: "FAIR" INDICATES FEW OR NO CLOUDS BELOW 12,000 FEET WITH NO
SIGNIFICANT WEATHER AND/OR OBSTRUCTIONS TO VISIBILITY. N/A MEANS
CURRENT SKY AND/OR WEATHER CONDITIONS ARE NOT AVAILABLE.

MNZ060>063-068>070-290400-
   Twin Cities Metro

CITY           SKY/WX    TMP DP  RH WIND       PRES   REMARKS
TWIN CITIES    PTCLDY    61  55  81 SE3       30.05R
ST PAUL        CLEAR     61  56  83 SE5       30.05R
CRYSTAL        CLEAR     64  56  75 SE5       30.04R
BLAINE         PTCLDY    63  59  88 SE3       30.05S
LAKEVILLE      CLEAR     55  55 100 CALM      30.04F
EDEN PRAIRIE   CLEAR     61  55  81 E5        30.03R
SOUTH ST PAUL  CLEAR     62  55  80 CALM      30.04S
LAKE ELMO      FAIR      59  55  88 CALM      30.06R
$$
MNZ001>005-007-008-013>017-022>024-027-028-290400-
   Northwest Minnesota

CITY           SKY/WX    TMP DP  RH WIND       PRES   REMARKS
BEMIDJI        CLEAR     69  64  83 SW6       29.93S
HALLOCK        CLEAR     72  70  94 CALM      29.85R
ROSEAU         CLEAR     72  66  83 SW5       29.86R
WARROAD        CLEAR     72  68  88 SW6       29.86R
THIEF RVR FALL CLEAR    N/A N/A N/A SW10      29.88S
CROOKSTON      CLEAR     73  66  78 SW12      29.89S
FOSSTON        CLEAR     66  63  88 S12       29.93S
DETROIT LAKES  CLEAR     70  63  78 S10       29.98R
MOORHEAD       CLEAR     72  64  78 S12       29.94R
PARK RAPIDS    MOCLDY    69  62  78 S8        29.97R
MAHNOMEN       FAIR      67  64  89 S8        29.94S
$$
MNZ006-009>011-018-025>026-290400-
   North Central Minnesota

CITY           SKY/WX    TMP DP  RH WIND       PRES   REMARKS
BAUDETTE       CLEAR     70  65  84 S5        29.87R
FLAG ISLAND    CLOUDY    72  66  83 CALM      29.85R HAZE
INTL FALLS     MOCLDY    72  65  78 SW8G16    29.88R
WASKISH        PTCLDY    72  66  83 SW7       29.89R
BIG FORK       CLEAR     68  63  83 S7        29.94R
LONGVILLE      CLEAR     70  63  78 S6        29.96S
GRAND RAPIDS     N/A     66  61  82 S8        29.96S
CRANE LAKE     CLOUDY    72  64  78 SW5       29.92R
ORR            MOCLDY    70  61  73 S6        29.90R
COOK           PTCLDY    72  63  73 SW6       29.94R
WALKER         FAIR      69  62  78 SW8       29.94S
$$
MNZ012-019>021-037-290400-
   Northeast Minnesota

CITY           SKY/WX    TMP DP  RH WIND       PRES   REMARKS
DULUTH         PTCLDY    67  60  78 SW13      30.00R
ELY            MOCLDY    70  61  73 SW7G18    29.93R
HIBBING        CLEAR     69  62  78 S6        29.95S
EVELETH        CLEAR     70  61  73 SW8       29.97S
DULUTH HARBOR  CLEAR     70  64  83 S13       29.98S
TWO HARBORS    CLEAR     70  63  78 SW8       29.95F
SILVER BAY     CLEAR     70  63  78 SW7       29.93F
GRAND MARAIS     N/A     57  55  93 CALM      29.92R
G MARAIS ARPRT MOCLDY    66  59  77 SW7       29.96R
$$
MNZ029>031-032-039>041-046>048-054>057-064-290400-
   West Central Minnesota

CITY           SKY/WX    TMP DP  RH WIND       PRES   REMARKS
FERGUS FALLS   CLEAR     66  64  94 S9        29.98R
WHEATON        CLEAR     64  61  88 S9        30.00R
MORRIS         CLEAR     63  63 100 S7        30.00R
ALEXANDRIA     CLEAR     65  62  90 S7        30.03R
ELBOW LAKE     FAIR      64  62  94 S7        29.99S
WADENA         CLEAR     66  61  82 S8        29.99S
GLENWOOD       CLEAR     63  61  94 S9        30.03R
APPLETON       CLEAR     64  61  88 S3        30.01R
BENSON         CLEAR     63  59  88 S6        30.02R
ORTONVILLE     CLEAR     64  61  88 S6        30.00R
MADISON        CLEAR     61  59  94 S5        30.02R
WILLMAR        FAIR      61  59  94 S3        30.04S
$$
MNZ033>034-036-042>043-049>051-058-059-290400-
   Central Minnesota

CITY           SKY/WX    TMP DP  RH WIND       PRES   REMARKS
ST CLOUD       CLEAR     62  59  90 S7        30.03R
SAUK CENTRE    FAIR      61  59  94 S6        30.03R
PAYNESVILLE    CLEAR     63  58  83 SE6       30.04R
AITKIN         CLEAR     70  61  73 S8G16     29.98S
PINE RIVER     CLEAR     66  63  88 S7        30.01S
BRAINERD       CLEAR     66  61  84 S9        30.01R
STAPLES        CLEAR     64  61  88 S9        30.00S
LONG PRAIRIE   FAIR      61  59  94 S6        30.03R
LITTLE FALLS   CLEAR     63  59  88 S5        30.02R
LITCHFIELD     CLEAR     63  61  94 CALM      30.04S
BUFFALO        CLEAR     62  56  81 CALM      30.05S
MAPLE LAKE     CLEAR     61  58  91 S3        30.04F
$$
MNZ037-044-045-052-053-290400-
   East Central Minnesota

CITY           SKY/WX    TMP DP  RH WIND       PRES   REMARKS
PRINCETON      CLEAR     64  59  82 S3        30.04R
MORA           CLEAR     63  59  88 S5        30.05R
CAMBRIDGE      CLEAR     66  55  68 S7        30.02S
RUSH CITY      PTCLDY    62  57  84 S9        30.04S
MOOSE LAKE     PTCLDY    64  59  82 SW9       29.99S
HINCKLEY       FAIR      64  61  88 S6        30.03R
CLOQUET        PTCLDY    66  59  77 S7        30.01R
MCGREGOR       CLEAR     68  63  83 S7        30.00R
$$
MNZ071>073-080-081-089-090-097-098-290400-
   Southwest Minnesota

CITY           SKY/WX    TMP DP  RH WIND       PRES   REMARKS
MONTEVIDEO     CLEAR     61  57  88 CALM      30.04R
GRANITE FALLS  CLEAR     59  57  92 SE5       30.04R
CANBY          CLEAR     62  59  90 CALM      30.04R
MARSHALL       CLEAR     61  54  77 S6        30.04R
REDWOOD FALLS  CLEAR     60  57  89 SE3       30.02R
OLIVIA         CLEAR     57  54  88 SE3       30.03R
PIPESTONE      CLEAR     59  55  88 CALM      30.03R
WINDOM         CLOUDY    61  55  82 CALM      30.02F
WORTHINGTON    CLOUDY    61  55  82 NE9       30.02S
JACKSON        CLOUDY    61  55  82 E5        30.03R
TRACY          CLEAR     59  56  90 CALM      30.03S
SLAYTON        CLEAR     58  57  96 CALM      30.04S
$$
MNZ065>067-074>077-082>085-091>093-290400-
   South Central Minnesota

CITY           SKY/WX    TMP DP  RH WIND       PRES   REMARKS
MANKATO        CLEAR     61  54  77 NE6       30.03S
NEW ULM        CLEAR     61  57  88 E5        30.03R
ST JAMES       PTCLDY    59  57  94 CALM      30.03R
FAIRMONT       CLOUDY    59  52  77 NE5       30.00F
GLENCOE        CLEAR     59  57  94 CALM      30.03S
FARIBAULT      CLEAR     57  55  94 N3        30.03F
OWATONNA       CLEAR     57  54  88 E5        30.01S
WASECA         CLEAR     55  54  94 MISG      30.02F
ALBERT LEA     MOCLDY    57  57 100 NE6       30.01R
$$
MNZ078>079-086>088-094>096-290400-
   Southeast Minnesota

CITY           SKY/WX    TMP DP  RH WIND       PRES   REMARKS
ROCHESTER      MOCLDY    58  56  93 E13       30.03S
RED WING       CLEAR     61  55  82 E6        30.03S
STANTON        CLEAR     57  55  90 CALM      30.02F
DODGE CENTER   PTCLDY    55  55 100 E6        30.03S
WINONA         MOCLDY    59  55  88 SE9       30.04F
AUSTIN         CLOUDY    59  57  94 E10       29.99S
PRESTON        CLOUDY    57  55  95 E9        30.03S
$$
ABBREVIATIONS USED IN REMARKS
   TC - TEMPERATURES IN CELSIUS
  WCI - WIND CHILL INDEX
   HX - HEAT INDEX
  VSB - VISIBILITY
$$


USA.gov is the U.S. government's official web portal to all federal, state and local government web resources and services.